Location: Newark
(51.3000°N, 178.2000°W)
Time: 00:57:44
(UTC+00:00)

ISS - Pass Details

Date: 15 May 2021
Orbit: 417 x 422 km, 51.6° (Epoch: 15 June)

Event Time Altitude Azimuth Distance (km) Brightness Sun altitude
Rises 09:11:51 0° 220° (SW) 2,355 -0.1 -11.8°
Reaches altitude 10° 09:14:07 10° 207° (SSW) 1,496 -1.2 -12.0°
Maximum altitude 09:17:01 27° 148° (SSE) 839 -2.8 -12.2°
Drops below altitude 10° 09:19:56 10° 88° (E) 1,506 -1.3 -12.5°
Sets 09:22:14 0° 76° (ENE) 2,374 -0.1 -12.7°
